TimeEDT,TemperatureF,Dew PointF,Humidity,Sea Level PressureIn,VisibilityMPH,Wind Direction,Wind SpeedMPH,Gust SpeedMPH,PrecipitationIn,Events,Conditions,WindDirDegrees,DateUTC
12:53 AM,55.0,50.0,83,30.21,10.0,Calm,Calm,-,N/A,,Clear,0,2013-09-19 04:53:00
1:53 AM,54.0,50.0,86,30.20,10.0,Calm,Calm,-,N/A,,Clear,0,2013-09-19 05:53:00
2:53 AM,52.0,48.9,89,30.19,10.0,Calm,Calm,-,N/A,,Clear,0,2013-09-19 06:53:00
3:53 AM,52.0,48.9,89,30.17,10.0,Calm,Calm,-,N/A,,Clear,0,2013-09-19 07:53:00
4:53 AM,50.0,48.0,93,30.17,10.0,Calm,Calm,-,N/A,,Clear,0,2013-09-19 08:53:00
5:53 AM,51.1,48.0,89,30.18,10.0,Calm,Calm,-,N/A,,Clear,0,2013-09-19 09:53:00
6:53 AM,50.0,48.0,93,30.19,10.0,Calm,Calm,-,N/A,,Clear,0,2013-09-19 10:53:00
7:53 AM,54.0,50.0,86,30.18,10.0,West,3.5,-,N/A,,Clear,270,2013-09-19 11:53:00
8:53 AM,61.0,50.0,67,30.18,10.0,West,4.6,-,N/A,,Clear,260,2013-09-19 12:53:00
9:53 AM,66.0,46.9,50,30.18,10.0,WSW,8.1,-,N/A,,Clear,250,2013-09-19 13:53:00
10:53 AM,69.1,46.0,44,30.17,10.0,West,8.1,-,N/A,,Clear,270,2013-09-19 14:53:00
11:53 AM,72.0,44.1,37,30.16,10.0,West,6.9,-,N/A,,Clear,280,2013-09-19 15:53:00
12:53 PM,73.9,43.0,33,30.14,10.0,WSW,5.8,-,N/A,,Clear,250,2013-09-19 16:53:00
1:53 PM,73.9,48.9,41,30.12,10.0,SSW,10.4,-,N/A,,Clear,210,2013-09-19 17:53:00
2:53 PM,73.9,48.0,40,30.11,10.0,South,12.7,-,N/A,,Clear,190,2013-09-19 18:53:00
3:53 PM,73.0,48.0,41,30.10,10.0,SSW,16.1,-,N/A,,Clear,210,2013-09-19 19:53:00
4:53 PM,71.1,51.1,49,30.09,10.0,SSW,13.8,-,N/A,,Clear,210,2013-09-19 20:53:00
5:53 PM,68.0,52.0,56,30.09,10.0,SSW,10.4,-,N/A,,Clear,200,2013-09-19 21:53:00
6:53 PM,64.9,54.0,68,30.10,10.0,SSW,8.1,-,N/A,,Clear,210,2013-09-19 22:53:00
7:53 PM,64.0,55.0,73,30.10,10.0,SW,6.9,-,N/A,,Clear,220,2013-09-19 23:53:00
8:53 PM,63.0,55.9,78,30.12,10.0,SW,4.6,-,N/A,,Clear,230,2013-09-20 00:53:00
9:53 PM,62.1,55.9,80,30.11,10.0,WSW,3.5,-,N/A,,Clear,240,2013-09-20 01:53:00
10:53 PM,62.1,57.0,84,30.10,10.0,SW,3.5,-,N/A,,Clear,230,2013-09-20 02:53:00
11:53 PM,61.0,57.0,87,30.09,10.0,Calm,Calm,-,N/A,,Clear,0,2013-09-20 03:53:00